Theta_e
314 311 311 312 312 311 311 311 313 313 313 312 311 311 310 309 307 307 307 305 305 304
311 311 310 311 312 311 312 312 311 312 312 313 312 312 310 308 307 307 306 306 306 305
310 309 309 308 308 308 308 308 308 308 308 308 309 310 309 308 308 307 306 306 305 305
307 306 306 305 305 305 305 304 303 304 303 304 305 305 306 306 306 305 305 306 305 305
303 303 301 301 301 301 300 301 300 299 299 299 299 300 299 299 300 301 301 302 303 304
300 300 299 299 299 299 298 297 297 297 296 296 297 296 297 297 296 295 296 297 297 298
299 298 298 297 297 297 297 296 296 296 296 295 296 295 296 293 292 292 292 293 294 294
297 297 296 295 295 295 295 295 295 294 294 295 295 294 291 291 290 289 290 291 291 292
295 293 293 293 293 293 293 293 293 293 293 292 293 291 291 290 289 290 290 289 290 291
292 291 291 292 292 292 291 292 291 292 291 290 292 291 291 290 289 289 289 290 290 290
291 290 291 291 290 291 290 290 289 288 289 290 290 290 289 289 289 289 289 289 289 289
291 290 290 289 289 289 289 288 287 288 288 288 288 289 289 288 287 288 288 289 289 288
290 290 289 289 289 289 288 287 288 287 288 288 287 288 288 288 286 285 285 285 286 286
290 290 290 289 289 287 287 287 286 286 286 286 287 286 287 287 285 284 282 282 283 284
Wind_Speed
7 4 5 6 6 5 5 4 5 6 5 5 5 6 5 4 4 6 4 6 5 4
7 7 7 8 7 6 8 9 9 9 9 8 7 7 7 5 6 6 5 6 6 5
7 8 8 7 8 9 9 11 11 11 10 10 10 9 7 7 7 6 5 6 7 6
6 8 7 8 8 8 10 11 12 12 13 13 13 12 11 10 10 9 9 8 9 10
6 6 7 8 8 8 9 10 11 12 13 13 14 13 13 13 13 14 15 16 14 14
5 5 6 7 7 8 9 10 10 11 12 13 14 14 13 13 14 15 15 15 16 16
5 5 6 6 7 8 8 9 10 10 11 12 12 13 12 13 13 13 14 14 14 16
5 6 6 7 8 8 9 9 11 12 11 11 10 10 12 14 15 14 14 13 14 14
6 8 8 8 9 10 9 11 11 11 12 12 11 13 15 13 11 14 15 13 15 12
8 10 10 10 11 11 9 10 11 11 14 15 13 13 11 13 14 14 11 14 15 13
10 11 11 11 11 9 10 10 10 13 15 12 13 13 20 17 11 11 15 16 16 14
10 11 12 12 11 9 9 10 13 13 14 14 14 16 13 14 12 13 14 14 14 15
10 11 12 11 10 8 10 13 12 14 12 15 15 14 17 14 10 12 10 13 16 20
11 12 11 11 8 10 10 12 12 12 11 14 14 15 19 19 12 9 11 12 12 13
Wind_Direction
357 335 334 348 340 323 305 304 321 304 330 304 284 269 267 267 272 278 289 275 263 267
11 2 359 350 342 342 343 339 344 335 326 310 297 288 276 263 259 257 260 258 244 246
14 10 357 352 355 354 352 343 338 335 331 326 321 313 300 289 277 265 257 261 259 262
16 6 355 352 353 352 347 344 338 336 334 329 326 328 327 320 308 301 296 283 269 261
20 358 357 349 347 349 343 339 335 333 331 330 330 330 328 324 324 324 338 333 318 297
11 355 347 337 341 342 336 335 332 329 333 332 328 325 329 329 356 344 341 340 332 329
352 349 332 338 341 334 331 328 325 330 330 322 323 325 324 344 337 330 323 319 319 318
333 351 340 343 335 330 333 333 337 330 320 316 312 310 334 324 316 314 310 311 311 309
337 345 343 336 334 335 333 333 321 319 313 312 306 297 285 281 295 299 296 297 297 300
347 342 336 335 330 323 325 319 317 320 325 313 302 315 318 318 310 303 300 301 300 299
344 334 326 321 315 325 323 319 323 317 301 313 313 346 326 309 314 332 315 310 308 306
330 323 315 312 318 320 320 329 316 306 324 318 338 320 328 339 347 319 303 302 319 317
327 313 309 311 313 321 328 315 322 314 334 319 321 338 336 347 337 321 329 324 314 314
313 309 310 314 332 322 319 318 315 329 324 323 328 326 330 333 332 339 326 313 310 308